Regional Weather Roundup
Issued by NWS

Home | Current Version | Previous Version | Graphics & Text | Print | Product List | Glossary On
Versions: 1 2 3 4 5 6 7 8 9 10 11 12 13 14 15 16 17 18 19 20 21 22 23 24 25 26 27 28 29 30 31 32 33 34 35 36 37 38 39 40 41 42 43 44 45 46 47 48 49 50
519
ASUS44 KLIX 202305
RWRLA
LOUISIANA WEATHER ROUNDUP
NATIONAL WEATHER SERVICE NEW ORLEANS LA
600 PM CDT WED AUG 20 2014

NOTE: "FAIR" INDICATES FEW OR NO CLOUDS BELOW 12,000 FEET WITH NO
      SIGNIFICANT WEATHER AND/OR OBSTRUCTIONS TO VISIBILITY.
      SKY/WX - SKY CONDITION AND SIGNIFICANT WEATHER.
      TMP - AIR TEMPERATURE.    DP   - DEWPOINT TEMPERATURE.
      RH  - RELATIVE HUMIDITY.  PRES - PRESSURE.
      HX  - HEAT INDEX.         WCI  - WIND CHILL INDEX.

*  THESE STATIONS ARE NOT NWS OR FAA STATIONS AND ARE NOT UNDER
   NWS QUALITY CONTROL.

LAZ040-048-061>063-065-066-069-210000-
SOUTHEAST LOUISIANA

CITY           SKY/WX    TMP DP  RH WIND       PRES   REMARKS
N.O. AUDUBON     N/A     84  79  83 MISG        N/A  HX  96
N.O. INTL ARPT CLOUDY    84  73  69 S7        30.05S
N.O. LAKEFRONT CLOUDY    86  72  62 S7        30.06R
N.O. DOWNTOWN* FAIR      88  72  58 S5        30.06R
SLIDELL        PTSUNNY   88  73  61 S7        30.04R HX  95
BATON ROUGE    CLOUDY    81  75  82 E5        30.05F
BOOTHVILLE     PTSUNNY   88  75  65 S8        30.06S HX  97
BELLE CHASSE   CLOUDY    85  74  69 S5        30.05S
BOGALUSA*      FAIR      89  74  61 S8        30.05S HX  97
GALLIANO*      NOT AVBL
NEW ROADS*     FAIR      79  73  83 S3        30.05F
GONZALES*      FAIR      76  76  99 CALM      30.06R
HAMMOND*       CLOUDY    82  72  69 CALM      30.07R
HOUMA*         NOT AVBL
PORT FOURCHON* PTCLDY    88  77  70 S8        30.07S HX 100

$$

LAZ041-044-053-054-210000-
SOUTHWEST LOUISIANA

CITY           SKY/WX    TMP DP  RH WIND       PRES   REMARKS
LAKE CHARLES   CLOUDY    85  78  80 S7        30.02S HX  96
LAFAYETTE      CLOUDY    77  74  90 VRB3      30.05R
PATTERSON      CLOUDY   N/A N/A N/A MISG        N/A  THUNDER
SALT POINT       N/A     91  77  63 CALM      30.05R HX 104
NEW IBERIA     CLOUDY    84  72  67 NE3       30.05S
CHENAULT AIRPK PTSUNNY   84  75  74 CALM      30.04R

$$

LAZ027-028-210000-
CENTRAL LOUISIANA

CITY           SKY/WX    TMP DP  RH WIND       PRES   REMARKS
FORT POLK      TSTM      74  73  97 CALM      30.05F
ALEXANDRIA INT CLOUDY    83  72  69 S8        30.02R
ALEXANDRIA     PTSUNNY   83  72  69 SE10      30.04F

$$

LAZ001-002-210000-
NORTHWEST LOUISIANA

CITY           SKY/WX    TMP DP  RH WIND       PRES   REMARKS
SHREVEPORT     MOSUNNY   94  69  44 S10       29.97R HX  99
BARKSDALE AFB  MOSUNNY   94  69  44 SE12      29.98R HX  99
DTN SHREVEPORT MOSUNNY   93  70  46 SE9       29.98R HX  99

$$

LAZ014-016-210000-
NORTHEAST LOUISIANA

CITY           SKY/WX    TMP DP  RH WIND       PRES   REMARKS
MONROE         SUNNY     91  70  49 S7        30.02R HX  96
TALLULAH       SUNNY     90  66  45 S7        30.02S

$$




USA.gov is the U.S. government's official web portal to all federal, state and local government web resources and services.